FW4179 Weather Reports


time (UTC)temp
C
wind
direction
speed
KPH
gust
KPH
rain 1hr
cm
rain 24hr
cm
rain mn
cm
humidity
%
barometer
mb
20260901134556 25 0 0.0 0.0 0.00 0.00 0.00 86 1022.4
20260901133101 24 0 0.0 0.0 0.00 0.00 0.00 88 1022.3
20260901131602 23 0 0.0 0.0 0.00 0.00 0.00 91 1022.4
20260901130056 23 0 0.0 0.0 0.00 0.00 0.00 94 1022.4
20260901124558 22 0 0.0 0.0 0.00 0.00 0.00 95 1022.2
20260901123057 22 0 0.0 0.0 0.00 0.00 0.00 96 1022.0
20260901121558 22 0 0.0 0.0 0.00 0.00 0.00 96 1021.8
20260901120108 21 0 0.0 0.0 0.00 0.00 0.00 97 1021.5
20260901114606 21 0 0.0 0.0 0.00 0.00 0.00 97 1021.3
20260901113100 21 0 0.0 0.0 0.00 0.00 0.00 97 1021.1
20260901111602 21 0 0.0 0.0 0.00 0.00 0.00 97 1021.0
20260901110100 21 134 1.6 8.0 0.00 0.00 0.00 97 1020.6
20260901104602 21 144 0.0 0.0 0.00 0.00 0.00 97 1020.7
20260901103105 21 0 0.0 0.0 0.00 0.00 0.00 97 1020.6
20260901101556 21 0 0.0 0.0 0.00 0.00 0.00 96 1020.6
20260901100058 22 0 0.0 0.0 0.00 0.00 0.00 95 1020.6
20260901094601 22 0 0.0 3.2 0.00 0.00 0.00 95 1020.4
20260901093100 22 0 0.0 0.0 0.00 0.00 0.00 95 1020.4
20260901091615 22 0 0.0 0.0 0.00 0.00 0.00 94 1020.4
20260901090104 22 0 0.0 0.0 0.00 0.00 0.00 93 1020.2
20260901084604 22 0 0.0 0.0 0.00 0.00 0.00 93 1020.1
20260901083106 22 0 0.0 0.0 0.00 0.00 0.00 94 1020.1
20260901081552 22 0 0.0 0.0 0.00 0.00 0.00 95 1020.0
20260901074555 22 0 0.0 0.0 0.00 0.00 0.00 93 1020.0
20260901073105 23 0 0.0 0.0 0.00 0.00 0.00 92 1020.0
20260901071558 23 0 0.0 0.0 0.00 0.00 0.00 93 1020.2
20260901064558 22 0 0.0 0.0 0.00 0.00 0.00 93 1020.4
20260901063058 23 0 0.0 0.0 0.00 0.00 0.00 93 1020.3
20260901061557 23 0 0.0 0.0 0.00 0.00 0.00 92 1020.3
20260901060054 23 0 0.0 0.0 0.00 0.00 0.00 92 1020.4
20260901054600 23 0 0.0 0.0 0.00 0.00 0.00 91 1020.4
20260901053102 23 0 0.0 0.0 0.00 0.00 0.00 90 1020.5
20260901051559 23 0 0.0 0.0 0.00 0.00 0.00 89 1020.7
20260901050057 24 0 0.0 0.0 0.00 0.00 0.00 89 1020.5
20260901044551 24 0 0.0 0.0 0.00 0.00 0.00 88 1020.6
20260901043101 25 0 0.0 0.0 0.00 0.00 0.00 87 1020.6
20260901041555 25 0 0.0 0.0 0.00 0.00 0.00 86 1020.5
20260901040057 25 0 0.0 0.0 0.00 0.00 0.00 86 1020.4
20260901034557 25 0 0.0 0.0 0.00 0.00 0.00 86 1020.3
20260901033055 25 0 0.0 0.0 0.00 0.00 0.00 85 1020.4
20260901031554 26 0 0.0 0.0 0.00 0.00 0.00 84 1020.4
20260901030055 26 0 0.0 0.0 0.00 0.00 0.00 83 1020.4
20260901024550 26 0 0.0 0.0 0.00 0.00 0.00 82 1020.3
20260901023059 26 0 0.0 0.0 0.00 0.00 0.00 80 1020.2
20260901021554 26 0 0.0 0.0 0.00 0.00 0.00 80 1020.3
20260901020059 26 0 0.0 0.0 0.00 0.00 0.00 80 1020.1
20260901014556 27 0 0.0 0.0 0.00 0.00 0.00 77 1019.9
20260901013115 27 0 0.0 0.0 0.00 0.00 0.00 76 1019.8
20260901011556 28 0 0.0 0.0 0.00 0.00 0.00 74 1019.6
20260901010059 28 0 0.0 0.0 0.00 0.00 0.00 73 1019.5
20260901004607 28 0 0.0 3.2 0.00 0.00 0.00 72 1019.4
20260901003056 29 0 0.0 0.0 0.00 0.00 0.00 71 1019.3
20260901001556 29 0 0.0 0.0 0.00 0.00 0.00 70 1019.3
20260901000052 30 0 0.0 1.6 0.00 0.00 0.00 69 1019.4
20260831234616 30 155 1.6 4.8 0.00 0.00 0.00 67 1019.4
20260831233057 31 155 0.0 6.4 0.00 0.00 0.00 65 1019.5
20260831231603 32 126 1.6 12.9 0.00 0.00 0.00 61 1019.6
20260831230056 34 179 3.2 6.4 0.00 0.00 0.00 55 1019.6
20260831224559 35 0 0.0 1.6 0.00 0.00 0.00 52 1019.6
20260831223058 34 0 0.0 1.6 0.00 0.00 0.00 53 1019.7
20260831221551 33 0 0.0 4.8 0.00 0.00 0.00 54 1019.7
20260831220058 34 302 0.0 6.4 0.00 0.00 0.00 54 1019.9
20260831214605 34 0 0.0 8.0 0.00 0.00 0.00 54 1020.0
20260831213102 35 0 0.0 3.2 0.00 0.00 0.00 53 1020.0
20260831211550 33 0 0.0 6.4 0.00 0.00 0.00 54 1020.0
20260831210057 33 134 3.2 11.3 0.00 0.00 0.00 54 1020.0
20260831204601 33 0 1.6 8.0 0.00 0.00 0.00 55 1020.2
20260831203102 33 0 0.0 4.8 0.00 0.00 0.00 55 1020.3
20260831201602 33 225 1.6 12.9 0.00 0.00 0.00 57 1020.4
20260831200058 33 137 1.6 8.0 0.00 0.00 0.00 56 1020.5
20260831194552 33 244 0.0 8.0 0.00 0.00 0.00 57 1020.8
20260831193128 33 0 1.6 9.7 0.00 0.00 0.00 57 1021.0
20260831191551 33 264 1.6 6.4 0.00 0.00 0.00 60 1020.9
20260831190101 32 299 3.2 9.7 0.00 0.00 0.00 57 1021.2
20260831184602 32 238 0.0 11.3 0.00 0.00 0.00 61 1021.4
20260831183102 32 0 1.6 11.3 0.00 0.00 0.00 64 1021.5
20260831181613 32 0 0.0 6.4 0.00 0.00 0.00 63 1021.6
20260831180107 32 170 1.6 9.7 0.00 0.00 0.00 65 1021.8
20260831174555 31 257 3.2 11.3 0.00 0.00 0.00 65 1021.9
20260831173102 31 249 0.0 6.4 0.00 0.00 0.00 66 1022.0
20260831171600 31 290 0.0 6.4 0.00 0.00 0.00 69 1022.1
20260831170112 30 288 0.0 8.0 0.00 0.00 0.00 68 1022.3
20260831164609 30 0 0.0 6.4 0.00 0.00 0.00 69 1022.4
20260831163100 30 223 0.0 11.3 0.00 0.00 0.00 71 1022.7
20260831161609 30 267 3.2 9.7 0.00 0.00 0.00 71 1022.6
20260831160108 30 188 1.6 9.7 0.00 0.00 0.00 72 1022.6
20260831154618 30 202 1.6 8.0 0.00 0.00 0.00 72 1022.7
20260831153056 30 278 1.6 8.0 0.00 0.00 0.00 74 1022.7
20260831151559 28 286 3.2 6.4 0.00 0.00 0.00 76 1022.7
20260831150105 28 232 1.6 6.4 0.00 0.00 0.00 76 1022.7
20260831144601 28 249 1.6 6.4 0.00 0.00 0.00 80 1022.7
20260831143049 27 0 1.6 11.3 0.00 0.00 0.00 82 1022.6
20260831141604 26 119 4.8 11.3 0.00 0.00 0.00 83 1022.5